Change the Weather History Date:

Saturday, January 5, 2013

  Actual Average Record
Temperature  
Mean Temperature 49 °F -  
Max Temperature 52 °F - - ()
Min Temperature 46 °F - - ()
Degree Days  
Heating Degree Days 16    
Moisture  
Dew Point 43 °F    
Average Humidity 80    
Maximum Humidity 93    
Minimum Humidity 71    
Precipitation  
Precipitation 0.00 in - - ()
Sea Level Pressure  
Sea Level Pressure 30.27 in    
Wind  
Wind Speed 19 mph (NNW)    
Max Wind Speed 22 mph    
Max Gust Speed 30 mph    
Visibility 8 miles    
Events Rain    
T = Trace of Precipitation, MM = Missing Value Source: NWS Daily Summary

Daily Weather History Graph

Daily Weather History Graph

Search for Another Location

Airport or City:

Trip Planner

Search our weather history database for the weather conditions in past years. The results will help you decide how hot, cold, wet, or windy it might be!

Date:

Astronomy

Jan. 05, 2013 Rise Set
Actual Time 7:17 AM CST 5:52 PM CST
Civil Twilight 6:52 AM CST 6:17 PM CST
Nautical Twilight 6:24 AM CST 6:45 PM CST
Astronomical Twilight 5:55 AM CST 7:14 PM CST
Moon 12:45 AM CST (1/5) 12:26 PM CST (1/5)
Length of Visible Light 11h 24m
Length of Day
10h 34m
Last Quarter, 44% of the Moon is Illuminated
Jan 5
Last Quarter
Jan 11
New
Jan 18
First Quarter
Jan 26
Full
Feb 3
Last Quarter

Hourly Weather History & Observations

Time (CST) Temp. Windchill Dew Point Humidity Pressure Visibility Wind Dir Wind Speed Gust Speed Precip Events Conditions
12:00 AM 46.4 °F 38.7 °F 44.6 °F 93% 30.28 in 3.0 mi NNW 20.7 mph - N/A   Overcast
12:53 AM 46.9 °F - 43.0 °F 86% 30.27 in 8.0 mi NNW 20.7 mph 26.5 mph 0.00 in   Overcast
1:53 AM 48.0 °F - 42.1 °F 80% 30.26 in 8.0 mi NNW 18.4 mph - N/A   Overcast
2:09 AM 48.2 °F - 42.8 °F 82% 30.25 in 9.0 mi NNW 18.4 mph 27.6 mph N/A   Overcast
2:53 AM 48.0 °F - 41.0 °F 77% 30.25 in 9.0 mi NNW 18.4 mph - N/A   Overcast
3:53 AM 48.0 °F - 39.9 °F 74% 30.25 in 9.0 mi NNW 18.4 mph 25.3 mph N/A   Overcast
4:53 AM 48.0 °F - 39.0 °F 71% 30.26 in 9.0 mi NNW 20.7 mph 28.8 mph N/A   Overcast
5:53 AM 48.0 °F - 39.0 °F 71% 30.27 in 9.0 mi NNW 21.9 mph 29.9 mph N/A   Overcast
6:53 AM 46.9 °F - 39.0 °F 74% 30.28 in 9.0 mi NNW 19.6 mph 27.6 mph N/A   Overcast
7:53 AM 48.0 °F - 39.9 °F 74% 30.30 in 8.0 mi NNW 19.6 mph 27.6 mph N/A   Overcast
8:53 AM 48.0 °F - 39.9 °F 74% 30.32 in 8.0 mi NNW 21.9 mph 27.6 mph N/A   Overcast
9:53 AM 48.9 °F - 41.0 °F 74% 30.33 in 8.0 mi NNW 17.3 mph 25.3 mph N/A   Overcast
10:53 AM 48.9 °F - 42.1 °F 77% 30.33 in 8.0 mi NNW 16.1 mph - N/A   Overcast
11:25 AM 48.2 °F - 42.8 °F 82% 30.32 in 8.0 mi NW 17.3 mph - N/A   Overcast
11:53 AM 48.9 °F - 43.0 °F 80% 30.30 in 8.0 mi NNW 18.4 mph - N/A   Overcast
12:53 PM 50.0 °F - 44.1 °F 80% 30.26 in 6.0 mi NNW 18.4 mph 25.3 mph N/A   Haze
1:53 PM 50.0 °F - 46.0 °F 86% 30.24 in 4.0 mi NNW 17.3 mph - 0.00 in Rain Light Rain
2:53 PM 51.1 °F - 46.9 °F 86% 30.23 in 8.0 mi NNW 17.3 mph 21.9 mph 0.00 in   Overcast
3:53 PM 51.1 °F - 46.0 °F 83% 30.22 in 8.0 mi North 17.3 mph 25.3 mph N/A   Overcast
4:53 PM 51.1 °F - 46.0 °F 83% 30.22 in 8.0 mi North 17.3 mph - N/A   Overcast
6:53 PM 51.1 °F - 46.0 °F 83% 30.23 in 9.0 mi NNW 12.7 mph - N/A   Overcast
7:53 PM 51.1 °F - 46.0 °F 83% 30.24 in 9.0 mi NNW 15.0 mph - N/A   Overcast
8:53 PM 51.1 °F - 46.0 °F 83% 30.26 in 9.0 mi NNW 12.7 mph - N/A   Overcast
9:53 PM 52.0 °F - 46.0 °F 80% 30.27 in 10.0 mi NNW 13.8 mph - N/A   Overcast
10:53 PM 52.0 °F - 46.0 °F 80% 30.26 in 10.0 mi NW 12.7 mph - N/A   Overcast
11:53 PM 51.1 °F - 46.0 °F 83% 30.25 in 9.0 mi NW 11.5 mph - N/A   Overcast